Погода в Новополянье

Россия / Липецкая область     53°10′40″N   39°47′57″E
темп.,
°C
ветер,
м/с
пор.,
м/с
влажн.,
%
обл.,
%
осадки,
мм/ч
давл.,
гПа
погр.,
м
25 октября, пн
пн2500:00+1сз711759 0.0 1022818
03:00−1ссз613795 0.0 1025597
06:00−1сз611805 0.0 1027520
09:000ссз69755 0.0 1029557
12:00+3ссз4557100 0.0 1030873
15:00+3сз455368 0.0 1030915
18:00+1зсз23645 0.0 103154
21:000зюз34686 0.0 103180
26 октября, вт
вт2600:00−1зюз37675 0.0 1031154
03:00−1зюз410705 0.0 1031227
06:00−1зюз51171100 0.0 1030272
09:00+1зюз51263100 0.0 1029342
12:00+6зюз61047100 0.0 1028583
15:00+7зюз6104884 0.0 1027677
18:00+4юз51258100 0.0 1027331
21:00+3юз5136086 0.0 1026332
27 октября, ср
ср2700:00+2юз5136073 0.0 1026314
03:00+2юз5136256 0.0 1026284
06:00+1юз5136488 0.0 1025272
09:00+3юз614598 0.0 1025385
12:00+8юз812455 0.0 1024639
15:00+9юз713440 0.0 1022841
18:00+7юз71547100 0.0 1022576
21:00+7зюз7145561 0.0 1021645
28 октября, чт
чт2800:00+6зюз61271100 0.0 1021451
03:00+5з41085100 0.0 1022365
06:00+4зюз3789100 0.0 1022203
09:00+5зюз4981100 0.0 1022297
12:00+9зюз61062100 0.0 1021628
15:00+8зюз61374100 0.0 1020630
18:00+8зюз61377100 0.4 1019658
21:00+8з61280100 0.7 1019541
29 октября, пт
пт2900:00+8з6128799 0.1 1019552
03:00+8зсз51091100 0.1 1020467
06:00+8сз499486 0.0 1021380
09:00+8сз2593100 0.1 1023194
12:00+10с348337 0.2 1024443
15:00+10ссв347582 0.2 1025743
18:00+8всв3581100 0.1 1027310
21:00+8в3582100 0.1 1029295